Regional Weather Roundup
Issued by NWS Northern Indiana

Home | Current Version | Previous Version | Text Only | Print | Product List | Glossary Off
Versions: 1 2 3 4 5 6 7 8 9 10 11 12 13 14 15 16 17 18 19 20 21 22 23 24 25 26 27 28 29 30 31 32 33 34 35 36 37 38 39 40 41 42 43 44 45 46 47 48 49 50

000
ASUS43 KIWX 171210
RWRIWX

KIWX WEATHER ROUNDUP
NATIONAL WEATHER SERVICE NORTHERN INDIANA
700 AM EST FRI NOV 17 2017

NOTE: "FAIR" INDICATES FEW OR NO CLOUDS BELOW 12,000 FEET WITH NO
SIGNIFICANT WEATHER AND/OR OBSTRUCTIONS TO VISIBILITY.

* THESE STATIONS ARE NOT UNDER NWS QUALITY CONTROL. THEY ALSO MAY NOT
  REPORT WEATHER SUCH AS PRECIPITATION OR FOG.

INZ001>027-171300-
NORTHERN INDIANA

CITY           SKY/WX    TMP DP  RH WIND       PRES   REMARKS
GARY*          PTCLDY    37  32  81 S5        30.18R
VALPARAISO     CLOUDY    37  31  78 SE9       30.17F
6HR MIN TEMP:  37; 6HR MAX TEMP:  37;

MICHIGAN CITY* CLOUDY    34  30  86 S7        30.17F WCI  28
LAPORTE*       CLOUDY    35  31  87 S7        30.18F WCI  29
6HR MIN TEMP:  34; 6HR MAX TEMP:  35;

KNOX*          CLOUDY    36  32  87 SE9       30.18F
SOUTH BEND     CLOUDY    34  30  85 S13       30.19F WCI  25
6HR MIN TEMP:  34; 6HR MAX TEMP:  36;

ELKHART*       CLOUDY    36  28  75 S8        30.20
GOSHEN         CLOUDY    35  28  75 S9        30.20F WCI  28
6HR MIN TEMP:  35; 6HR MAX TEMP:  37;

MONTICELLO*    CLOUDY    35  30  83 SE7       30.18F WCI  29
6HR MIN TEMP:  35; 6HR MAX TEMP:  36;

LOGANSPORT*    CLOUDY    34  32  93 SE9       30.20F WCI  26
ROCHESTER*     CLOUDY    37  32  81 SE9       30.19F
WARSAW*        CLOUDY    34  30  86 SE5       30.20F WCI  30
AUBURN*        CLOUDY    36  30  80 SE5       30.24R
FORT WAYNE     CLOUDY    37  31  78 SE7       30.23F
6HR MIN TEMP:  36; 6HR MAX TEMP:  38;

HUNTINGTON*    CLOUDY    35  30  83 S5        30.23R WCI  31
6HR MIN TEMP:  35; 6HR MAX TEMP:  36;

PERU/GRISSOM   CLOUDY    35  32  88 S8        30.20S WCI  29
6HR MIN TEMP:  35; 6HR MAX TEMP:  36;

MARION*        CLOUDY    35  31  86 S5        30.23R FOG     WCI  31
6HR MIN TEMP:  23; 6HR MAX TEMP:  50;


$$
INZ028>050-171300-
CENTRAL INDIANA

CITY           SKY/WX    TMP DP  RH WIND       PRES   REMARKS
LAFAYETTE      MOCLDY    30  29  96 CALM      30.20F
6HR MIN TEMP:  29; 6HR MAX TEMP:  34;

KOKOMO*        CLOUDY    35  31  85 SE7       30.22R WCI  29
6HR MIN TEMP:  35; 6HR MAX TEMP:  36;

MUNCIE*        CLOUDY    37  30  75 SE7       30.20F
6HR MIN TEMP:  36; 6HR MAX TEMP:  38;

INDIANAPOLIS   CLOUDY    34  29  82 SE12      30.21S WCI  25
6HR MIN TEMP:  34; 6HR MAX TEMP:  35;


$$
MIZ043>046-050>051-056>058-064>065-071>073-077>080-171300-
SOUTHWEST LOWER MICHIGAN

CITY           SKY/WX    TMP DP  RH WIND       PRES   REMARKS
BATTLE CREEK   CLOUDY    34  29  82 S6        30.20F WCI  29
6HR MIN TEMP:  30; 6HR MAX TEMP:  34;

BENTON HARBOR  MOCLDY    36  30  79 SE9G18    30.17F
6HR MIN TEMP:  36; 6HR MAX TEMP:  37;

COLDWATER*     MOCLDY    32  29  88 SE5       30.21S WCI  28
6HR MIN TEMP:  31; 6HR MAX TEMP:  36;

HILLSDALE*     CLOUDY    32  28  86 SE5       30.21S WCI  27
HOLLAND        CLOUDY    34  31  88 SE6       30.19S WCI  29
6HR MIN TEMP:  31; 6HR MAX TEMP:  34;

GRAND RAPIDS   CLOUDY    32  30  92 SE9       30.19F WCI  24
6HR MIN TEMP:  28; 6HR MAX TEMP:  32;

KALAMAZOO      CLOUDY    36  28  73 S8        30.19F
6HR MIN TEMP:  36; 6HR MAX TEMP:  37;

STURGIS*       CLOUDY    34  30  86 S8        30.20S WCI  27
THREE RIVERS*  CLOUDY    37  31  79 SE6       30.20F
6HR MIN TEMP:  37; 6HR MAX TEMP:  37;


$$
OHZ001>008-015>018-024>025-171300-
NORTHWEST OHIO

CITY           SKY/WX    TMP DP  RH WIND       PRES   REMARKS
WAUSEON*       CLOUDY    36  32  87 SE5       30.25S
DEFIANCE       PTCLDY    29  27  92 E3        30.25F
6HR MIN TEMP:  28; 6HR MAX TEMP:  35;

FINDLAY        CLOUDY    32  26  78 SE5       30.26R WCI  27
6HR MIN TEMP:  31; 6HR MAX TEMP:  36;

TOLEDO EXPRESS CLOUDY    37  29  72 S5        30.26S
6HR MIN TEMP:  34; 6HR MAX TEMP:  37;

TOLEDO METCALF CLOUDY    37  28  70 S5        30.29R
6HR MIN TEMP:  35; 6HR MAX TEMP:  38;

LIMA           CLOUDY    35  30  82 SE7       30.25R WCI  29
6HR MIN TEMP:  31; 6HR MAX TEMP:  36;


$$
AND FOR LAKE MICHIGAN COASTAL AND OPEN LAKE BUOY OBSERVATIONS

STATION/POSITION TEMP    WIND        PRES    VSBY  WAVE
                 AIR SEA DIR/SP/G                  HT/PER
                 (F)     (DEG/KT/KT) (MB)    (MI)  (FT/S)
CALUMET HARBOR    36     160/  9/ 12 1020.6R
MICHIGAN CITY     35     140/  9/ 12   N/A
BURNS HARBOR      36     170/  8/ 14 1022.0S
SAINT JOSEPH      36     190/  3/  8 1022.0
SOUTH LAKE BUOY   41 50  170/ 17/ 21 1021.6          2/ 7

$$
&&




USA.gov is the U.S. government's official web portal to all federal, state and local government web resources and services.